timestamp,wind_dir_avg,wind_spd_max_dir,wind_spd_avg,wind_spd_gust,battery_voltage,lat,long
2018-01-17 00:00:00+00:00,51.0,49.0,5.65,6.36,,47.59359,-54.27349
2018-01-17 00:10:00+00:00,25.0,31.0,5.48,6.9,,47.59359,-54.27349
2018-01-17 00:20:00+00:00,8.0,7.0,5.18,6.3,,47.59359,-54.27349
2018-01-17 00:30:00+00:00,10.0,14.0,3.97,5.39,,47.59359,-54.27349
2018-01-17 00:40:00+00:00,349.0,353.0,4.63,5.69,,47.59359,-54.27349
2018-01-17 00:50:00+00:00,359.0,6.0,6.34,7.04,,47.59359,-54.27349
2018-01-17 01:00:00+00:00,349.0,348.0,5.08,6.06,,47.59359,-54.27349
2018-01-17 01:10:00+00:00,349.0,351.0,5.08,5.93,,47.59359,-54.27349
2018-01-17 01:20:00+00:00,355.0,1.0,4.22,5.32,,47.59359,-54.27349
2018-01-17 01:30:00+00:00,348.0,349.0,4.36,4.91,,47.59359,-54.27349
2018-01-17 01:40:00+00:00,339.0,342.0,4.49,5.11,,47.59359,-54.27349
2018-01-17 01:50:00+00:00,343.0,339.0,3.13,3.73,,47.59359,-54.27349
2018-01-17 02:00:00+00:00,335.0,334.0,2.8,3.4,,47.59359,-54.27349
2018-01-17 02:10:00+00:00,341.0,334.0,3.51,4.18,,47.59359,-54.27349
2018-01-17 02:20:00+00:00,329.0,325.0,3.93,4.8,,47.59359,-54.27349
2018-01-17 02:30:00+00:00,330.0,330.0,4.46,6.06,,47.59359,-54.27349
2018-01-17 02:40:00+00:00,319.0,317.0,4.05,4.7,,47.59359,-54.27349
2018-01-17 02:50:00+00:00,310.0,305.0,3.89,4.53,,47.59359,-54.27349
2018-01-17 03:00:00+00:00,305.0,306.0,4.59,5.62,,47.59359,-54.27349
2018-01-17 03:10:00+00:00,306.0,312.0,4.94,5.64,,47.59359,-54.27349
2018-01-17 03:20:00+00:00,309.0,314.0,4.87,5.83,,47.59359,-54.27349
2018-01-17 03:30:00+00:00,294.0,298.0,4.25,4.97,,47.59359,-54.27349
2018-01-17 03:40:00+00:00,278.0,275.0,3.68,4.64,,47.59359,-54.27349
2018-01-17 03:50:00+00:00,289.0,284.0,5.11,5.82,,47.59359,-54.27349
2018-01-17 04:00:00+00:00,279.0,286.0,4.5,5.35,,47.59359,-54.27349
2018-01-17 04:10:00+00:00,277.0,274.0,4.99,5.65,,47.59359,-54.27349
2018-01-17 04:20:00+00:00,282.0,289.0,5.02,5.89,,47.59359,-54.27349
2018-01-17 04:30:00+00:00,300.0,292.0,5.89,7.2,,47.59359,-54.27349
2018-01-17 04:40:00+00:00,291.0,286.0,5.58,6.29,,47.59359,-54.27349
2018-01-17 04:50:00+00:00,302.0,298.0,6.13,6.76,,47.59359,-54.27349
2018-01-17 05:00:00+00:00,301.0,300.0,6.56,8.11,,47.59359,-54.27349
2018-01-17 05:10:00+00:00,292.0,299.0,4.76,5.43,,47.59359,-54.27349
2018-01-17 05:20:00+00:00,280.0,298.0,5.27,5.9,,47.59359,-54.27349
2018-01-17 05:30:00+00:00,266.0,269.0,3.8,4.68,,47.59359,-54.27349
2018-01-17 05:40:00+00:00,278.0,270.0,4.31,5.02,,47.59359,-54.27349
2018-01-17 05:50:00+00:00,274.0,282.0,4.6,5.25,,47.59359,-54.27349
2018-01-17 06:00:00+00:00,273.0,280.0,4.74,5.31,,47.59359,-54.27349
2018-01-17 06:10:00+00:00,273.0,273.0,3.22,4.3,,47.59359,-54.27349
2018-01-17 06:20:00+00:00,267.0,265.0,3.12,3.85,,47.59359,-54.27349
2018-01-17 06:30:00+00:00,263.0,261.0,4.44,5.02,,47.59359,-54.27349
2018-01-17 06:40:00+00:00,270.0,271.0,4.36,6.03,,47.59359,-54.27349
2018-01-17 06:50:00+00:00,267.0,268.0,4.04,4.67,,47.59359,-54.27349
2018-01-17 07:00:00+00:00,262.0,263.0,4.71,5.25,,47.59359,-54.27349
2018-01-17 07:10:00+00:00,266.0,265.0,3.61,4.33,,47.59359,-54.27349
2018-01-17 07:20:00+00:00,264.0,268.0,3.46,4.49,,47.59359,-54.27349
2018-01-17 07:30:00+00:00,256.0,255.0,4.0,4.8,,47.59359,-54.27349
2018-01-17 07:40:00+00:00,256.0,258.0,3.71,4.41,,47.59359,-54.27349
2018-01-17 07:50:00+00:00,250.0,252.0,3.59,4.13,,47.59359,-54.27349
2018-01-17 08:00:00+00:00,242.0,243.0,4.04,5.03,,47.59359,-54.27349
2018-01-17 08:10:00+00:00,270.0,275.0,3.8,4.75,,47.59359,-54.27349
2018-01-17 08:20:00+00:00,277.0,276.0,4.33,5.28,,47.59359,-54.27349
2018-01-17 08:30:00+00:00,268.0,271.0,4.95,6.06,,47.59359,-54.27349
2018-01-17 08:40:00+00:00,275.0,274.0,4.03,4.95,,47.59359,-54.27349
2018-01-17 08:50:00+00:00,257.0,256.0,4.32,5.17,,47.59359,-54.27349
2018-01-17 09:00:00+00:00,274.0,278.0,4.06,4.64,,47.59359,-54.27349
2018-01-17 09:10:00+00:00,256.0,259.0,3.48,4.35,,47.59359,-54.27349
2018-01-17 09:20:00+00:00,254.0,255.0,4.5,5.22,,47.59359,-54.27349
2018-01-17 09:30:00+00:00,244.0,249.0,5.34,6.34,,47.59359,-54.27349
2018-01-17 09:40:00+00:00,228.0,233.0,4.8,5.84,,47.59359,-54.27349
2018-01-17 09:50:00+00:00,237.0,238.0,5.14,6.17,,47.59359,-54.27349
2018-01-17 10:00:00+00:00,239.0,231.0,4.75,5.41,,47.59359,-54.27349
2018-01-17 10:10:00+00:00,230.0,232.0,5.42,5.89,,47.59359,-54.27349
2018-01-17 10:20:00+00:00,248.0,249.0,5.5,6.39,,47.59359,-54.27349
2018-01-17 10:30:00+00:00,242.0,234.0,5.39,6.49,,47.59359,-54.27349
2018-01-17 10:40:00+00:00,252.0,254.0,7.09,7.88,,47.59359,-54.27349
2018-01-17 10:50:00+00:00,256.0,257.0,6.3,6.93,,47.59359,-54.27349
2018-01-17 11:00:00+00:00,268.0,261.0,6.52,7.75,,47.59359,-54.27349
2018-01-17 11:10:00+00:00,270.0,270.0,8.21,9.2,,47.59359,-54.27349
2018-01-17 11:20:00+00:00,282.0,285.0,7.46,8.07,,47.59359,-54.27349
2018-01-17 11:30:00+00:00,290.0,288.0,6.9,7.91,,47.59359,-54.27349
2018-01-17 11:40:00+00:00,284.0,282.0,7.67,8.73,,47.59359,-54.27349
2018-01-17 11:50:00+00:00,291.0,294.0,7.99,9.31,,47.59359,-54.27349
2018-01-17 12:00:00+00:00,298.0,293.0,6.5,7.43,,47.59359,-54.27349
2018-01-17 12:10:00+00:00,297.0,289.0,6.48,7.17,,47.59359,-54.27349
2018-01-17 12:20:00+00:00,305.0,305.0,5.22,6.61,,47.59359,-54.27349
2018-01-17 12:30:00+00:00,283.0,283.0,5.19,6.2,,47.59359,-54.27349
2018-01-17 12:40:00+00:00,287.0,284.0,7.13,8.88,,47.59359,-54.27349
2018-01-17 12:50:00+00:00,298.0,296.0,6.74,8.22,,47.59359,-54.27349
2018-01-17 13:00:00+00:00,301.0,304.0,6.49,7.69,,47.59359,-54.27349
2018-01-17 13:10:00+00:00,298.0,302.0,6.3,7.28,,47.59359,-54.27349
2018-01-17 13:20:00+00:00,303.0,305.0,6.36,7.25,,47.59359,-54.27349
2018-01-17 13:30:00+00:00,295.0,298.0,6.36,7.23,,47.59359,-54.27349
2018-01-17 13:40:00+00:00,278.0,281.0,6.67,7.55,,47.59359,-54.27349
2018-01-17 13:50:00+00:00,290.0,299.0,5.79,7.2,,47.59359,-54.27349
2018-01-17 14:00:00+00:00,304.0,308.0,5.16,6.02,,47.59359,-54.27349
2018-01-17 14:10:00+00:00,282.0,282.0,4.65,5.98,,47.59359,-54.27349
2018-01-17 14:20:00+00:00,306.0,309.0,3.07,3.71,,47.59359,-54.27349
2018-01-17 14:30:00+00:00,298.0,296.0,3.66,4.56,,47.59359,-54.27349
2018-01-17 14:40:00+00:00,309.0,298.0,4.32,5.56,,47.59359,-54.27349
2018-01-17 14:50:00+00:00,295.0,289.0,5.35,6.32,,47.59359,-54.27349
2018-01-17 15:00:00+00:00,301.0,296.0,4.86,5.65,,47.59359,-54.27349
2018-01-17 15:10:00+00:00,300.0,304.0,4.74,5.81,,47.59359,-54.27349
2018-01-17 15:20:00+00:00,290.0,285.0,4.42,5.31,,47.59359,-54.27349
2018-01-17 15:30:00+00:00,293.0,287.0,4.52,5.92,,47.59359,-54.27349
2018-01-17 15:40:00+00:00,282.0,282.0,4.71,5.49,,47.59359,-54.27349
2018-01-17 15:50:00+00:00,284.0,276.0,6.6,7.59,,47.59359,-54.27349
2018-01-17 16:00:00+00:00,291.0,290.0,6.55,9.32,,47.59359,-54.27349
2018-01-17 16:10:00+00:00,277.0,273.0,6.79,7.68,,47.59359,-54.27349
2018-01-17 16:20:00+00:00,286.0,287.0,8.54,9.52,,47.59359,-54.27349
2018-01-17 16:30:00+00:00,293.0,295.0,9.6,10.58,,47.59359,-54.27349
2018-01-17 16:40:00+00:00,280.0,283.0,8.09,9.41,,47.59359,-54.27349
2018-01-17 16:50:00+00:00,291.0,294.0,7.2,7.86,,47.59359,-54.27349
2018-01-17 17:00:00+00:00,287.0,281.0,7.91,9.23,,47.59359,-54.27349
2018-01-17 17:10:00+00:00,287.0,288.0,7.76,8.73,,47.59359,-54.27349
2018-01-17 17:20:00+00:00,287.0,288.0,6.5,7.55,,47.59359,-54.27349
2018-01-17 17:30:00+00:00,283.0,291.0,6.9,8.33,,47.59359,-54.27349
2018-01-17 17:40:00+00:00,301.0,304.0,6.85,7.66,,47.59359,-54.27349
2018-01-17 17:50:00+00:00,292.0,295.0,7.1,7.82,,47.59359,-54.27349
2018-01-17 18:00:00+00:00,287.0,292.0,6.64,8.37,,47.59359,-54.27349
2018-01-17 18:10:00+00:00,284.0,281.0,8.02,9.35,,47.59359,-54.27349
2018-01-17 18:20:00+00:00,275.0,273.0,7.68,8.25,,47.59359,-54.27349
2018-01-17 18:30:00+00:00,272.0,275.0,7.72,8.25,,47.59359,-54.27349
2018-01-17 18:40:00+00:00,273.0,277.0,7.23,8.0,,47.59359,-54.27349
2018-01-17 18:50:00+00:00,278.0,290.0,6.59,7.68,,47.59359,-54.27349
2018-01-17 19:00:00+00:00,287.0,291.0,7.4,8.28,,47.59359,-54.27349
2018-01-17 19:10:00+00:00,270.0,267.0,6.08,6.88,,47.59359,-54.27349
2018-01-17 19:20:00+00:00,273.0,271.0,6.32,7.08,,47.59359,-54.27349
2018-01-17 19:30:00+00:00,278.0,277.0,4.42,5.84,,47.59359,-54.27349
2018-01-17 19:40:00+00:00,289.0,285.0,4.47,5.12,,47.59359,-54.27349
2018-01-17 19:50:00+00:00,275.0,278.0,6.63,7.68,,47.59359,-54.27349
2018-01-17 20:00:00+00:00,278.0,276.0,7.38,8.48,,47.59359,-54.27349
2018-01-17 20:10:00+00:00,274.0,275.0,6.38,7.08,,47.59359,-54.27349
2018-01-17 20:20:00+00:00,277.0,264.0,6.11,6.88,,47.59359,-54.27349
2018-01-17 20:30:00+00:00,280.0,283.0,7.02,9.21,,47.59359,-54.27349
2018-01-17 20:40:00+00:00,277.0,273.0,5.52,6.77,,47.59359,-54.27349
2018-01-17 20:50:00+00:00,264.0,268.0,6.5,7.34,,47.59359,-54.27349
2018-01-17 21:00:00+00:00,279.0,276.0,6.69,8.06,,47.59359,-54.27349
2018-01-17 21:10:00+00:00,285.0,286.0,7.09,8.0,,47.59359,-54.27349
2018-01-17 21:20:00+00:00,269.0,274.0,6.62,7.34,,47.59359,-54.27349
2018-01-17 21:30:00+00:00,265.0,266.0,6.32,7.38,,47.59359,-54.27349
2018-01-17 21:40:00+00:00,261.0,254.0,6.2,7.04,,47.59359,-54.27349
2018-01-17 21:50:00+00:00,270.0,270.0,5.36,6.73,,47.59359,-54.27349
2018-01-17 22:00:00+00:00,260.0,270.0,4.72,6.55,,47.59359,-54.27349
2018-01-17 22:10:00+00:00,271.0,264.0,3.57,4.11,,47.59359,-54.27349
2018-01-17 22:20:00+00:00,259.0,265.0,3.35,4.23,,47.59359,-54.27349
2018-01-17 22:30:00+00:00,264.0,264.0,4.23,5.07,,47.59359,-54.27349
2018-01-17 22:40:00+00:00,263.0,263.0,6.32,6.87,,47.59359,-54.27349
2018-01-17 22:50:00+00:00,262.0,260.0,5.25,5.9,,47.59359,-54.27349
2018-01-17 23:00:00+00:00,253.0,260.0,3.64,4.62,,47.59359,-54.27349
2018-01-17 23:10:00+00:00,284.0,286.0,2.32,2.95,,47.59359,-54.27349
2018-01-17 23:20:00+00:00,264.0,262.0,4.85,5.47,,47.59359,-54.27349
2018-01-17 23:30:00+00:00,267.0,269.0,3.86,4.73,,47.59359,-54.27349
2018-01-17 23:40:00+00:00,258.0,264.0,4.01,4.88,,47.59359,-54.27349
2018-01-17 23:50:00+00:00,234.0,231.0,2.73,3.19,,47.59359,-54.27349
